When you browse on this site, cookies collect data to enhance your experience and personalize the content and advertising you see.
Visit our Privacy Policy to learn more. By continuing to use the site, you agree to this use of cookies and data.
  • In Hungary
  • List of Countries
  • For 7 days
  • Water Temperature
  • Weather Map
  • News
  • Weather Widgets
  • user-avatar
    Login

    Hourly Weather Swiatniki

    Today, 7 December, Saturday

    Time Temperature Precipitation Wind Pressure Humidity
    00:00 -3°C° 0 mm 7 mps 742 mmHg 57%
    01:00 -3°C° 0 mm 6 mps 741 mmHg 58%
    02:00 -2°C° 0 mm 6 mps 741 mmHg 58%
    03:00 -2°C° 0 mm 6 mps 740 mmHg 58%
    04:00 -2°C° 0 mm 6 mps 739 mmHg 58%
    05:00 -1°C° 0 mm 7 mps 739 mmHg 59%
    06:00 -1°C° 0 mm 7 mps 739 mmHg 60%
    07:00 -1°C° 0 mm 7 mps 739 mmHg 57%
    08:00 0°C° 0.1 mm 8 mps 739 mmHg 64%
    09:00 0°C° 0.1 mm 8 mps 739 mmHg 71%
    10:00 0°C° 0.1 mm 9 mps 739 mmHg 78%
    11:00 +1°C° 0 mm 9 mps 739 mmHg 79%
    12:00 +2°C° 0 mm 8 mps 739 mmHg 80%
    13:00 +4°C° 0 mm 8 mps 739 mmHg 81%
    14:00 +4°C° 0.1 mm 8 mps 739 mmHg 83%
    15:00 +4°C° 0.1 mm 8 mps 739 mmHg 86%
    16:00 +4°C° 0.1 mm 8 mps 739 mmHg 88%
    17:00 +4°C° 0.1 mm 8 mps 739 mmHg 88%
    18:00 +4°C° 0.1 mm 8 mps 740 mmHg 87%
    19:00 +4°C° 0.1 mm 7 mps 740 mmHg 87%
    20:00 +4°C° 0.2 mm 7 mps 741 mmHg 87%
    21:00 +4°C° 0.2 mm 7 mps 741 mmHg 87%
    22:00 +4°C° 0.2 mm 7 mps 741 mmHg 88%
    23:00 +4°C° 0.1 mm 7 mps 741 mmHg 87%

    Tomorrow, 8 December, Sunday

    Time Temperature Precipitation Wind Pressure Humidity
    00:00 +4°C° 0.1 mm 7 mps 742 mmHg 86%
    01:00 +4°C° 0.1 mm 7 mps 742 mmHg 85%
    02:00 +4°C° 0 mm 6 mps 742 mmHg 85%
    03:00 +4°C° 0 mm 6 mps 742 mmHg 85%
    04:00 +5°C° 0 mm 5 mps 741 mmHg 86%
    05:00 +4°C° 0 mm 6 mps 742 mmHg 84%
    06:00 +4°C° 0 mm 6 mps 742 mmHg 83%
    07:00 +4°C° 0 mm 6 mps 742 mmHg 81%
    08:00 +4°C° 0 mm 6 mps 742 mmHg 79%
    09:00 +4°C° 0 mm 7 mps 742 mmHg 78%
    10:00 +4°C° 0 mm 7 mps 741 mmHg 76%
    11:00 +4°C° 0 mm 7 mps 741 mmHg 74%
    12:00 +5°C° 0 mm 7 mps 740 mmHg 72%
    13:00 +5°C° 0 mm 7 mps 739 mmHg 70%
    14:00 +5°C° 0 mm 7 mps 739 mmHg 71%
    15:00 +4°C° 0 mm 7 mps 738 mmHg 71%
    16:00 +4°C° 0 mm 7 mps 738 mmHg 72%
    17:00 +5°C° 0 mm 8 mps 737 mmHg 71%
    18:00 +5°C° 0 mm 8 mps 737 mmHg 70%
    19:00 +5°C° 0 mm 8 mps 737 mmHg 70%
    20:00 +5°C° 0.3 mm 8 mps 737 mmHg 75%
    21:00 +5°C° 0.3 mm 8 mps 736 mmHg 80%
    22:00 +5°C° 0.3 mm 8 mps 736 mmHg 84%
    23:00 +5°C° 0.2 mm 8 mps 736 mmHg 84%

    Day after tomorrow, 9 December, Monday

    Time Temperature Precipitation Wind Pressure Humidity
    00:00 +5°C° 0.2 mm 8 mps 736 mmHg 83%
    01:00 +5°C° 0.2 mm 8 mps 735 mmHg 82%
    02:00 +5°C° 0.4 mm 8 mps 735 mmHg 83%
    03:00 +5°C° 0.4 mm 7 mps 735 mmHg 84%
    04:00 +5°C° 0.4 mm 7 mps 734 mmHg 85%
    05:00 +5°C° 0.3 mm 7 mps 734 mmHg 85%
    06:00 +5°C° 0.3 mm 7 mps 734 mmHg 84%
    07:00 +5°C° 0.3 mm 7 mps 734 mmHg 84%
    08:00 +5°C° 0.5 mm 7 mps 734 mmHg 82%
    09:00 +7°C° 0.5 mm 6 mps 734 mmHg 80%
    10:00 +7°C° 0.5 mm 6 mps 735 mmHg 78%
    11:00 +7°C° 0 mm 6 mps 735 mmHg 74%
    12:00 +7°C° 0 mm 6 mps 735 mmHg 69%
    13:00 +7°C° 0 mm 6 mps 735 mmHg 64%
    14:00 +7°C° 0 mm 6 mps 735 mmHg 65%
    15:00 +5°C° 0 mm 6 mps 735 mmHg 65%
    16:00 +5°C° 0 mm 6 mps 735 mmHg 66%
    17:00 +4°C° 0 mm 6 mps 735 mmHg 68%
    18:00 +4°C° 0 mm 6 mps 735 mmHg 69%
    19:00 +4°C° 0 mm 7 mps 735 mmHg 71%
    20:00 +4°C° 0 mm 7 mps 735 mmHg 72%
    21:00 +4°C° 0 mm 7 mps 736 mmHg 73%
    22:00 +3°C° 0 mm 7 mps 736 mmHg 74%
    23:00 +3°C° 0 mm 7 mps 736 mmHg 74%

    10 December, Tuesday

    Time Temperature Precipitation Wind Pressure Humidity
    00:00 +3°C° 0 mm 7 mps 736 mmHg 75%
    01:00 +3°C° 0 mm 7 mps 736 mmHg 76%
    02:00 +3°C° 0 mm 7 mps 737 mmHg 76%
    03:00 +2°C° 0 mm 7 mps 737 mmHg 77%
    04:00 +2°C° 0 mm 7 mps 737 mmHg 78%
    05:00 +2°C° 0.2 mm 7 mps 738 mmHg 80%
    06:00 +3°C° 0.2 mm 7 mps 739 mmHg 83%
    07:00 +3°C° 0.2 mm 7 mps 739 mmHg 86%
    08:00 +2°C° 0 mm 7 mps 740 mmHg 80%
    09:00 +2°C° 0 mm 7 mps 741 mmHg 74%
    10:00 0°C° 0 mm 7 mps 742 mmHg 68%
    11:00 +2°C° 0 mm 7 mps 743 mmHg 72%
    12:00 +2°C° 0 mm 6 mps 743 mmHg 76%
    13:00 +2°C° 0 mm 6 mps 744 mmHg 81%
    14:00 +2°C° 0.2 mm 6 mps 745 mmHg 84%
    15:00 +2°C° 0.2 mm 6 mps 746 mmHg 87%
    16:00 +2°C° 0.2 mm 7 mps 746 mmHg 90%
    17:00 +1°C° 0.1 mm 6 mps 747 mmHg 89%
    18:00 +1°C° 0.1 mm 5 mps 748 mmHg 88%
    19:00 0°C° 0.1 mm 4 mps 749 mmHg 86%
    20:00 +1°C° 0 mm 3 mps 749 mmHg 86%
    21:00 0°C° 0 mm 3 mps 750 mmHg 86%
    22:00 +1°C° 0 mm 2 mps 750 mmHg 87%
    23:00 +1°C° 0 mm 2 mps 750 mmHg 86%

    11 December, Wednesday

    Time Temperature Precipitation Wind Pressure Humidity
    00:00 +1°C° 0 mm 1 mps 751 mmHg 86%
    01:00 +1°C° 0 mm 1 mps 751 mmHg 85%
    02:00 +1°C° 0 mm 1 mps 751 mmHg 85%
    03:00 +1°C° 0 mm 1 mps 750 mmHg 84%
    04:00 +1°C° 0 mm 1 mps 750 mmHg 84%
    05:00 +1°C° 0 mm 1 mps 750 mmHg 84%
    06:00 -2°C° 0 mm 2 mps 750 mmHg 85%
    07:00 -2°C° 0 mm 3 mps 750 mmHg 86%
    08:00 -1°C° 0 mm 3 mps 749 mmHg 83%
    09:00 -1°C° 0 mm 4 mps 749 mmHg 81%
    10:00 0°C° 0 mm 4 mps 749 mmHg 78%
    11:00 0°C° 0 mm 5 mps 748 mmHg 74%
    12:00 +1°C° 0 mm 5 mps 748 mmHg 71%
    13:00 +1°C° 0 mm 5 mps 747 mmHg 67%
    14:00 0°C° 0 mm 5 mps 746 mmHg 70%
    15:00 0°C° 0 mm 4 mps 746 mmHg 73%
    16:00 -1°C° 0 mm 4 mps 746 mmHg 76%
    17:00 -1°C° 0 mm 4 mps 746 mmHg 79%
    18:00 -1°C° 0 mm 4 mps 745 mmHg 82%
    19:00 -1°C° 0 mm 4 mps 745 mmHg 85%
    20:00 -2°C° 0 mm 4 mps 745 mmHg 86%
    21:00 -2°C° 0 mm 4 mps 744 mmHg 86%
    22:00 -1°C° 0 mm 3 mps 744 mmHg 87%
    23:00 -1°C° 0 mm 3 mps 744 mmHg 86%

    12 December, Thursday

    Time Temperature Precipitation Wind Pressure Humidity
    00:00 -1°C° 0 mm 3 mps 743 mmHg 85%
    01:00 -1°C° 0 mm 3 mps 743 mmHg 84%
    02:00 -1°C° 0 mm 3 mps 743 mmHg 83%
    03:00 -1°C° 0 mm 3 mps 742 mmHg 83%
    04:00 -1°C° 0 mm 3 mps 742 mmHg 82%
    05:00 -1°C° 0 mm 3 mps 742 mmHg 81%
    06:00 0°C° 0 mm 3 mps 742 mmHg 79%
    07:00 0°C° 0 mm 3 mps 742 mmHg 78%
    08:00 0°C° 0 mm 3 mps 742 mmHg 77%
    09:00 0°C° 0 mm 4 mps 742 mmHg 76%
    10:00 0°C° 0 mm 4 mps 742 mmHg 75%
    11:00 0°C° 0 mm 4 mps 742 mmHg 77%
    12:00 +2°C° 0 mm 3 mps 742 mmHg 80%
    13:00 +2°C° 0 mm 3 mps 742 mmHg 82%
    14:00 +2°C° 0 mm 2 mps 742 mmHg 86%
    15:00 +2°C° 0 mm 2 mps 741 mmHg 90%
    16:00 +2°C° 0 mm 1 mps 741 mmHg 93%
    17:00 +2°C° 0 mm 1 mps 741 mmHg 95%
    18:00 +2°C° 0 mm 1 mps 741 mmHg 96%
    19:00 +2°C° 0 mm 1 mps 741 mmHg 97%
    20:00 +2°C° 0.2 mm 1 mps 741 mmHg 97%
    21:00 +2°C° 0.2 mm 1 mps 741 mmHg 97%
    22:00 +2°C° 0.2 mm 1 mps 741 mmHg 98%
    23:00 +2°C° 0.1 mm 1 mps 741 mmHg 97%
    Show more